Location: Star Dogged Moon Observatory
(29.7756°N, 82.0783°W)
Time: 11:27:55
(UTC-04:00)

Amateur Radio Satellites - All Passes

Search period start: 01 October 2016 10:57
Search period end: 02 October 2016 10:57
Location: Star Dogged Moon Observatory, 29.7756°N, 82.0783°W

Satellite Date Start Highest point End Downlink Frequencies (MHz)
Time Altitude Azimuth
PRISM 01 Oct 11:00:40 11:01:13 10° 266° (W) 11:01:45 437.425
GONETS M04 01 Oct 11:08:33 11:13:36 16° 290° (WNW) 11:18:42
BEESAT 2 01 Oct 11:20:55 11:24:35 34° 248° (WSW) 11:28:12 435.950
DELFI C3 01 Oct 11:21:58 11:25:56 62° 283° (WNW) 11:29:51 145.870
PHONESAT 2.4 01 Oct 11:23:32 11:24:45 12° 351° (N) 11:26:00 2401.200-2431.200
QB50P1 01 Oct 11:25:23 11:27:37 14° 69° (ENE) 11:29:51 145.935-145.965
HO-68 01 Oct 11:31:00 11:32:22 11° 302° (WNW) 11:33:44 435.675
ANTELSAT 01 Oct 11:32:17 11:36:20 42° 261° (W) 11:40:21 437.575/2403.000
POPSAT HIP 1 01 Oct 11:38:21 11:41:26 20° 71° (ENE) 11:44:32 437.405
JAS-2 01 Oct 11:42:46 11:48:07 27° 66° (ENE) 11:53:56 435.910
FUNcube-1 01 Oct 11:46:39 11:48:53 14° 290° (WNW) 11:51:08 145.935
NANOSAT C BR1 01 Oct 11:51:21 11:54:56 28° 73° (ENE) 11:58:31 145.865
TIGRISAT 01 Oct 11:52:16 11:55:49 25° 263° (W) 11:59:21 435.000
CUBEBUG 1 01 Oct 12:02:06 12:02:51 10° 94° (E) 12:03:36 437.445
HUMSAT D 01 Oct 12:15:46 12:19:31 30° 287° (WNW) 12:23:16 437.325/437.525
QB50P2 01 Oct 12:17:53 12:22:04 74° 77° (ENE) 12:26:16 145.880/145.840
POLYITAN 1 01 Oct 12:20:04 12:24:14 74° 77° (ENE) 12:28:25 437.675
ESTCUBE 1 01 Oct 12:22:29 12:26:38 35° 99° (E) 12:30:46 437.505/2401.250
AIST 2 01 Oct 12:38:42 12:42:38 39° 59° (ENE) 12:46:35 435.215
BUGSAT 1 01 Oct 12:38:50 12:42:36 36° 74° (ENE) 12:46:21 437.445
UKube-1 01 Oct 12:45:48 12:47:19 12° 94° (E) 12:48:51 .
DUCHIFAT 1 01 Oct 12:52:25 12:56:27 48° 260° (W) 13:00:30 145.980
Oscar 19 01 Oct 12:55:20 12:57:04 12° 65° (ENE) 12:58:49 437.125/150
AISAT 01 Oct 12:58:03 13:02:15 44° 100° (E) 13:06:25 437.250
QB50P1 01 Oct 12:59:15 13:03:03 33° 261° (W) 13:06:52 145.935-145.965
M-CUBED/EXP-1 PRIME 01 Oct 12:59:35 13:01:28 14° 101° (ESE) 13:03:22 437.505
PHONESAT 2.4 01 Oct 13:00:33 13:01:41 12° 8° (N) 13:02:49 2401.200-2431.200
PCSat 01 Oct 13:04:05 13:07:57 19° 56° (NE) 13:11:47 145.827
YUBILEINY 01 Oct 13:09:01 13:13:07 14° 69° (ENE) 13:17:11 435.215
POPSAT HIP 1 01 Oct 13:13:42 13:17:02 23° 263° (W) 13:20:23 437.405
50 SAT 01 Oct 13:15:19 13:18:58 74° 101° (E) 13:22:34 437.505
DX 1 01 Oct 13:19:45 13:23:54 45° 100° (E) 13:28:02 434.975-435.025
JAS-2 01 Oct 13:26:44 13:32:42 43° 263° (W) 13:39:27 435.910
NANOSAT C BR1 01 Oct 13:27:57 13:30:37 16° 265° (W) 13:33:16 145.865
CUBEBUG 1 01 Oct 13:35:10 13:39:17 45° 285° (WNW) 13:43:23 437.445
SO-50 01 Oct 13:40:25 13:43:41 18° 109° (ESE) 13:46:57 436.795
VELOX 1 01 Oct 13:41:13 13:45:30 54° 285° (WNW) 13:49:45 145.980
AUBIESAT-1 01 Oct 13:51:44 13:55:03 74° 106° (ESE) 13:58:30 437.475
SPROUT 01 Oct 13:57:00 14:01:13 64° 283° (WNW) 14:05:25 437.525
ESTCUBE 1 01 Oct 14:00:24 14:03:05 16° 291° (WNW) 14:05:46 437.505/2401.250
BUGSAT 1 01 Oct 14:16:35 14:18:02 12° 265° (W) 14:19:29 437.445
AIST 2 01 Oct 14:18:51 14:20:43 13° 252° (WSW) 14:22:36 435.215
UKube-1 01 Oct 14:19:25 14:23:28 41° 286° (WNW) 14:27:30 .
Gurwin Techsat 1B 01 Oct 14:21:18 14:26:17 43° 73° (ENE) 14:31:17 435.225
Oscar 19 01 Oct 14:30:37 14:35:46 65° 258° (WSW) 14:40:56 437.125/150
M-CUBED/EXP-1 PRIME 01 Oct 14:33:33 14:35:54 19° 291° (WNW) 14:38:18 437.505
PHONESAT 2.4 01 Oct 14:35:38 14:38:19 32° 24° (NNE) 14:41:01 2401.200-2431.200
AISAT 01 Oct 14:36:39 14:38:15 12° 292° (WNW) 14:39:52 437.250
PCSat 01 Oct 14:46:21 14:51:29 44° 250° (WSW) 14:56:35 145.827
Cosmos 2491 01 Oct 14:51:24 14:59:49 53° 90° (E) 15:08:16 435.465 / 435.565
DX 1 01 Oct 14:58:10 14:59:38 12° 293° (WNW) 15:01:05 434.975-435.025
YUBILEINY 01 Oct 15:02:07 15:10:51 88° 267° (W) 15:19:33 435.215
TISAT 1 01 Oct 15:02:50 15:06:56 60° 285° (WNW) 15:11:03 437.305
Cosmos 2504 01 Oct 15:18:08 15:25:24 45° 80° (E) 15:33:10 435.465 / 435.565
SO-50 01 Oct 15:19:21 15:23:51 38° 301° (WNW) 15:28:20 436.795
ITAMSAT 1 01 Oct 15:32:40 15:37:43 58° 74° (ENE) 15:42:48 435.822/435.867
ITUPSAT 1 01 Oct 15:42:24 15:47:08 53° 101° (E) 15:51:49 437.325
AO-7 01 Oct 15:45:45 15:53:39 50° 68° (ENE) 16:01:32 29.400- 29.500
SWISSCUBE 01 Oct 15:53:09 15:57:58 84° 101° (E) 16:02:46 437.505
Gurwin Techsat 1B 01 Oct 16:02:58 16:06:20 17° 265° (W) 16:09:42 435.225
BEESAT 01 Oct 16:05:40 16:10:29 80° 283° (WNW) 16:15:15 436.000
AIST 1 01 Oct 16:10:53 16:14:05 20° 78° (ENE) 16:17:15
PHONESAT 2.4 01 Oct 16:11:50 16:14:20 25° 217° (SW) 16:16:51 2401.200-2431.200
Cosmos 2491 01 Oct 16:49:52 16:56:52 26° 286° (WNW) 17:03:59 435.465 / 435.565
KKS-1 01 Oct 16:51:51 16:55:39 28° 98° (E) 16:59:26 437.445
MOZHAYETS 4 01 Oct 16:55:47 17:00:22 58° 101° (E) 17:04:55
O/OREOS (USA 219) 01 Oct 16:55:54 16:59:53 28° 66° (ENE) 17:03:49 437.305
YUBILEINY 01 Oct 17:03:34 17:06:18 12° 281° (W) 17:09:03 435.215
HORYU 2 01 Oct 17:04:43 17:07:45 18° 70° (ENE) 17:10:45 437.375
JUGNU 01 Oct 17:04:49 17:06:47 12° 160° (SSE) 17:08:46 437.505
BRITE-PL 01 Oct 17:11:51 17:15:20 17° 68° (ENE) 17:18:45 437.365/2234.400
Cosmos 2504 01 Oct 17:12:11 17:18:24 28° 273° (W) 17:24:59 435.465 / 435.565
STARS 01 Oct 17:14:22 17:17:50 23° 97° (E) 17:21:16 437.465
ITAMSAT 1 01 Oct 17:15:37 17:17:26 12° 266° (W) 17:19:16 435.822/435.867
ITUPSAT 1 01 Oct 17:22:33 17:24:26 12° 294° (WNW) 17:26:19 437.325
NOAA 15 01 Oct 17:35:48 17:37:24 11° 65° (ENE) 17:39:01 137.62
AO-7 01 Oct 17:39:36 17:46:29 29° 261° (W) 17:53:25 29.400- 29.500
AIST 1 01 Oct 17:48:18 17:51:30 21° 271° (W) 17:54:42
RS-15 01 Oct 17:48:46 17:54:08 14° 98° (E) 17:59:35 29.354- 29.394
ISS 01 Oct 18:03:33 18:06:04 21° 127° (SE) 18:08:35 145.825
CUTE-I 01 Oct 18:03:36 18:07:10 19° 68° (ENE) 18:10:44 437.470
Cubesat XI-IV 01 Oct 18:04:45 18:08:22 19° 68° (ENE) 18:11:59 437.490
GOMX 1 01 Oct 18:16:45 18:21:24 31° 73° (ENE) 18:25:52 467.674
DOVE 4 01 Oct 18:20:12 18:21:55 12° 69° (ENE) 18:23:35 437.250
CUBESAT XI-V 01 Oct 18:26:43 18:31:24 71° 102° (ESE) 18:36:00 437.345
KKS-1 01 Oct 18:28:52 18:31:57 19° 290° (WNW) 18:35:03 437.445
O/OREOS (USA 219) 01 Oct 18:35:48 18:39:01 19° 260° (W) 18:42:13 437.305
MOZHAYETS 4 01 Oct 18:36:06 18:36:57 10° 293° (WNW) 18:37:48
HORYU 2 01 Oct 18:40:14 18:44:02 29° 262° (W) 18:47:51 437.375
BRITE-PL 01 Oct 18:47:44 18:53:18 54° 260° (W) 18:58:46 437.365/2234.400
JUGNU 01 Oct 18:50:36 18:55:16 24° 168° (SSE) 18:59:55 437.505
STARS 01 Oct 18:50:37 18:54:01 22° 289° (WNW) 18:57:25 437.465
CUSAT 1 01 Oct 18:51:34 18:57:22 45° 90° (E) 19:04:24 437.405
LilacSat-2 01 Oct 18:53:51 18:57:33 60° 77° (ENE) 19:01:15 437.200
NOAA 15 01 Oct 19:11:15 19:16:31 69° 258° (WSW) 19:21:49 137.62
NOAA 18 01 Oct 19:17:58 19:23:26 86° 76° (ENE) 19:28:55 137.9125
AO-85 01 Oct 19:21:08 19:24:40 18° 109° (ESE) 19:28:07 145.980
DANDE 01 Oct 19:22:17 19:26:28 25° 84° (E) 19:31:38 436.750
GONETS M04 01 Oct 19:26:02 19:33:26 30° 75° (ENE) 19:40:44
STRAND 1 01 Oct 19:35:10 19:37:44 14° 94° (E) 19:40:16 437.568
ISS 01 Oct 19:39:48 19:42:27 22° 320° (NW) 19:45:05 145.825
CUTE 1.7 + AOD 2 01 Oct 19:41:39 19:43:46 14° 69° (ENE) 19:45:52 437.475
CUTE-I 01 Oct 19:41:51 19:46:49 41° 260° (W) 19:51:50 437.470
Cubesat XI-IV 01 Oct 19:43:06 19:48:04 41° 261° (W) 19:53:04 437.490
CANX-2 01 Oct 19:43:06 19:45:49 17° 70° (ENE) 19:48:34 2200.000
RS-15 01 Oct 19:53:13 20:04:38 84° 114° (ESE) 20:16:44 29.354- 29.394
DOVE 4 01 Oct 19:54:13 19:59:10 57° 260° (W) 20:03:51 437.250
GOMX 1 01 Oct 19:54:58 19:59:20 25° 263° (W) 20:03:34 467.674
SRMSAT 01 Oct 19:56:28 19:59:38 15° 162° (SSE) 20:02:50 437.500
HO-68 01 Oct 20:00:36 20:07:15 43° 69° (ENE) 20:13:53 435.675
Cosmos 2499 01 Oct 20:08:41 20:16:17 51° 81° (E) 20:24:25 435.465 / 435.565
COMPASS 1 01 Oct 20:32:29 20:35:55 25° 72° (ENE) 20:39:22 437.405
CUSAT 1 01 Oct 20:34:21 20:39:36 26° 289° (WNW) 20:45:42 437.405
CINEMA 3 01 Oct 20:35:28 20:39:58 81° 258° (WSW) 20:44:17 145.822/145.860
JUGNU 01 Oct 20:38:36 20:43:50 32° 178° (S) 20:49:01 437.505
AO-85 01 Oct 20:59:49 21:04:50 44° 300° (WNW) 21:09:37 145.980
FUNcube-1 01 Oct 21:00:22 21:02:27 14° 70° (ENE) 21:04:34 145.935
DANDE 01 Oct 21:04:13 21:08:52 32° 288° (WNW) 21:14:48 436.750
SEEDS 01 Oct 21:08:22 21:12:32 68° 258° (WSW) 21:16:45 437.485
STRAND 1 01 Oct 21:12:06 21:17:04 50° 286° (WNW) 21:22:02 437.568
CUBEBUG 2 01 Oct 21:14:15 21:18:24 66° 77° (ENE) 21:22:32 437.445
CUTE 1.7 + AOD 2 01 Oct 21:15:20 21:19:13 36° 262° (W) 21:23:08 437.475
CANX-2 01 Oct 21:17:45 21:21:24 28° 263° (W) 21:25:06 2200.000
AAUSAT CUBESAT 2 01 Oct 21:18:22 21:22:30 78° 77° (ENE) 21:26:41 437.432
GONETS M04 01 Oct 21:22:05 21:30:20 47° 271° (W) 21:38:31
UWE-3 01 Oct 21:23:17 21:27:19 52° 75° (ENE) 21:31:20 435.000/436.395/437.385
Oscar 11 01 Oct 21:32:25 21:36:25 38° 74° (ENE) 21:40:26 145.826/435.025
ZACube-1 01 Oct 21:42:45 21:46:47 54° 76° (ENE) 21:50:49 437.345
SRMSAT 01 Oct 21:43:24 21:48:16 26° 171° (S) 21:53:09 437.500
HO-68 01 Oct 21:49:00 21:54:57 28° 262° (W) 22:00:56 435.675
DELFI C3 01 Oct 22:01:49 22:05:19 30° 74° (ENE) 22:08:50 145.870
Cosmos 2499 01 Oct 22:02:48 22:08:56 25° 273° (W) 22:15:25 435.465 / 435.565
COMPASS 1 01 Oct 22:08:30 22:11:23 18° 265° (W) 22:14:17 437.405
RS-15 01 Oct 22:09:21 22:18:33 26° 316° (NW) 22:28:10 29.354- 29.394
JUGNU 01 Oct 22:27:25 22:32:24 28° 188° (S) 22:37:22 437.505
FUNcube-1 01 Oct 22:34:40 22:38:22 32° 262° (W) 22:42:06 145.935
PRISM 01 Oct 22:44:18 22:48:14 45° 285° (WNW) 22:52:07 437.425
UNISAT 6 01 Oct 22:54:43 22:58:18 23° 97° (E) 23:01:56 437.425
HUMSAT D 01 Oct 23:00:17 23:04:21 82° 80° (E) 23:08:28 437.325/437.525
Oscar 11 01 Oct 23:10:49 23:12:38 12° 266° (W) 23:14:28 145.826/435.025
ESTCUBE 1 01 Oct 23:17:09 23:20:01 17° 69° (ENE) 23:22:53 437.505/2401.250
ANTELSAT 01 Oct 23:29:10 23:33:37 61° 101° (E) 23:38:10 437.575/2403.000
SRMSAT 01 Oct 23:31:50 23:37:00 32° 181° (S) 23:42:10 437.500
DELFI C3 01 Oct 23:38:05 23:40:08 14° 265° (W) 23:42:13 145.870
50 SAT 01 Oct 23:47:53 23:49:26 12° 70° (ENE) 23:51:00 437.505
TIGRISAT 01 Oct 23:48:23 23:52:52 83° 285° (WNW) 23:57:28 435.000
AISAT 01 Oct 23:50:15 23:53:25 20° 70° (ENE) 23:56:36 437.250
SO-50 01 Oct 23:56:31 00:00:41 36° 58° (ENE) 00:04:46 436.795
BEESAT 3 02 Oct 00:01:41 00:05:29 59° 115° (ESE) 00:09:20 437.485
QB50P2 02 Oct 00:09:36 00:12:39 19° 96° (E) 00:15:40 145.880/145.840
DX 1 02 Oct 00:10:13 00:13:16 19° 70° (ENE) 00:16:20 434.975-435.025
POLYITAN 1 02 Oct 00:11:46 00:14:48 19° 96° (E) 00:17:50 437.675
JUGNU 02 Oct 00:17:21 00:20:53 16° 197° (SSW) 00:24:25 437.505
CUBEBUG 1 02 Oct 00:24:29 00:28:51 66° 77° (ENE) 00:33:14 437.445
UNISAT 6 02 Oct 00:31:15 00:34:52 24° 288° (WNW) 00:38:31 437.425
AUBIESAT-1 02 Oct 00:32:02 00:35:39 32° 70° (ENE) 00:39:03 437.475
VELOX 1 02 Oct 00:32:03 00:36:26 60° 75° (ENE) 00:40:48 145.980
DUCHIFAT 1 02 Oct 00:42:21 00:46:17 39° 99° (E) 00:50:13 145.980
JAS-2 02 Oct 00:42:41 00:49:57 43° 97° (E) 00:56:36 435.910
SPROUT 02 Oct 00:44:21 00:48:22 41° 74° (ENE) 00:52:22 437.525
QB50P1 02 Oct 00:49:21 00:53:30 58° 101° (E) 00:57:40 145.935-145.965
ESTCUBE 1 02 Oct 00:52:24 00:56:29 34° 262° (W) 01:00:37 437.505/2401.250
POPSAT HIP 1 02 Oct 01:03:16 01:07:29 88° 102° (ESE) 01:11:44 437.405
BEESAT 2 02 Oct 01:06:38 01:10:23 44° 300° (WNW) 01:14:12 435.950
UKube-1 02 Oct 01:07:21 01:11:38 72° 77° (ENE) 01:15:58 .
Cosmos 2491 02 Oct 01:11:06 01:16:51 19° 71° (ENE) 01:22:32 435.465 / 435.565
M-CUBED/EXP-1 PRIME 02 Oct 01:12:57 01:17:01 50° 255° (WSW) 01:20:46 437.505
NANOSAT C BR1 02 Oct 01:16:25 01:20:36 65° 283° (WNW) 01:24:46 145.865
50 SAT 02 Oct 01:19:29 01:22:36 27° 262° (W) 01:25:45 437.505
SRMSAT 02 Oct 01:20:59 01:25:42 25° 191° (S) 01:30:25 437.500
AISAT 02 Oct 01:25:52 01:29:40 27° 262° (W) 01:33:27 437.250
SO-50 02 Oct 01:38:05 01:40:47 16° 252° (WSW) 01:43:27 436.795
QB50P2 02 Oct 01:44:53 01:48:20 25° 288° (WNW) 01:51:48 145.880/145.840
DX 1 02 Oct 01:45:29 01:49:13 27° 262° (W) 01:52:57 434.975-435.025
POLYITAN 1 02 Oct 01:47:02 01:50:29 25° 288° (WNW) 01:53:57 437.675
TISAT 1 02 Oct 01:48:19 01:52:15 41° 74° (ENE) 01:56:11 437.305
BUGSAT 1 02 Oct 02:01:19 02:05:13 50° 285° (WNW) 02:09:09 437.445
YUBILEINY 02 Oct 02:01:50 02:07:50 21° 83° (E) 02:13:47 435.215
AUBIESAT-1 02 Oct 02:08:11 02:10:03 13° 259° (W) 02:11:51 437.475
ISS 02 Oct 02:12:05 02:14:35 20° 39° (NE) 02:17:05 145.825
DUCHIFAT 1 02 Oct 02:19:52 02:21:34 12° 291° (WNW) 02:23:16 145.980
SPROUT 02 Oct 02:23:06 02:24:24 11° 266° (W) 02:25:44 437.525
JAS-2 02 Oct 02:28:00 02:34:33 31° 293° (WNW) 02:40:43 435.910
AIST 2 02 Oct 02:30:28 02:34:10 34° 112° (ESE) 02:37:54 435.215
ITUPSAT 1 02 Oct 02:43:29 02:47:39 31° 72° (ENE) 02:51:50 437.325
Gurwin Techsat 1B 02 Oct 02:43:54 02:48:28 29° 97° (E) 02:52:59 435.225
Oscar 19 02 Oct 02:48:17 02:53:26 75° 102° (ESE) 02:58:32 437.125/150
RS-15 02 Oct 02:52:54 02:59:11 15° 31° (NNE) 03:05:25 29.354- 29.394
SWISSCUBE 02 Oct 02:53:34 02:58:06 47° 74° (ENE) 03:02:40 437.505
Cosmos 2491 02 Oct 03:05:33 03:14:20 72° 268° (W) 03:23:03 435.465 / 435.565
BEESAT 02 Oct 03:05:53 03:10:32 58° 75° (ENE) 03:15:13 436.000
SRMSAT 02 Oct 03:11:47 03:14:18 13° 199° (SSW) 03:16:50 437.500
TISAT 1 02 Oct 03:26:58 03:28:00 11° 266° (W) 03:29:03 437.305
PCSat 02 Oct 03:38:22 03:43:38 57° 111° (ESE) 03:48:57 145.827
KKS-1 02 Oct 03:45:43 03:47:46 13° 68° (ENE) 03:49:48 437.445
ISS 02 Oct 03:48:15 03:51:01 25° 232° (SW) 03:53:48 145.825
Cosmos 2504 02 Oct 03:50:01 03:56:54 42° 90° (E) 04:03:33 435.465 / 435.565
ITAMSAT 1 02 Oct 03:51:50 03:56:34 34° 99° (E) 04:01:16 435.822/435.867
MOZHAYETS 4 02 Oct 03:52:05 03:55:53 27° 72° (ENE) 03:59:43
YUBILEINY 02 Oct 03:55:06 04:03:47 64° 278° (W) 04:12:28 435.215
AO-7 02 Oct 03:55:16 04:01:27 23° 97° (E) 04:07:36 29.400- 29.500
AIST 2 02 Oct 04:10:15 04:12:43 15° 306° (NW) 04:15:11 435.215
ITUPSAT 1 02 Oct 04:22:02 04:25:26 19° 264° (W) 04:28:52 437.325
Gurwin Techsat 1B 02 Oct 04:23:52 04:28:14 27° 290° (WNW) 04:32:36 435.225
SWISSCUBE 02 Oct 04:34:02 04:36:03 13° 266° (W) 04:38:04 437.505
AIST 1 02 Oct 04:34:20 04:37:07 17° 88° (E) 04:39:55
RS-15 02 Oct 05:03:05 05:15:13 57° 58° (ENE) 05:26:55 29.354- 29.394
KKS-1 02 Oct 05:19:42 05:23:54 42° 260° (W) 05:28:08 437.445
CUBESAT XI-V 02 Oct 05:24:02 05:28:14 34° 73° (ENE) 05:32:29 437.345
PCSat 02 Oct 05:24:09 05:27:21 16° 306° (NW) 05:30:35 145.827
MOZHAYETS 4 02 Oct 05:29:32 05:32:57 21° 264° (W) 05:36:24
ITAMSAT 1 02 Oct 05:31:49 05:35:45 22° 291° (WNW) 05:39:41 435.822/435.867
CUSAT 1 02 Oct 05:34:32 05:39:47 22° 69° (ENE) 05:44:14 437.405
AO-85 02 Oct 05:38:02 05:41:30 27° 57° (ENE) 05:44:50 145.980
STARS 02 Oct 05:40:11 05:44:28 54° 259° (W) 05:48:45 437.465
Cosmos 2504 02 Oct 05:44:25 05:50:17 25° 284° (WNW) 05:56:02 435.465 / 435.565
AO-7 02 Oct 05:46:23 05:54:29 61° 291° (WNW) 06:02:36 29.400- 29.500
DANDE 02 Oct 06:07:23 06:13:17 21° 69° (ENE) 06:18:37 436.750
AIST 1 02 Oct 06:10:40 06:14:25 27° 281° (W) 06:18:10
CUTE-I 02 Oct 06:27:57 06:29:37 11° 93° (E) 06:31:17 437.470
Cubesat XI-IV 02 Oct 06:29:11 06:31:02 12° 93° (E) 06:32:52 437.490
LilacSat-2 02 Oct 06:35:40 06:36:24 10° 94° (E) 06:37:09 437.200
HORYU 2 02 Oct 06:36:13 06:40:42 84° 103° (ESE) 06:45:11 437.375
STRAND 1 02 Oct 06:46:54 06:48:12 11° 65° (ENE) 06:49:29 437.568
BRITE-PL 02 Oct 06:59:40 07:04:11 87° 102° (ESE) 07:08:24 437.365/2234.400
O/OREOS (USA 219) 02 Oct 07:01:22 07:05:55 79° 289° (WNW) 07:10:31 437.305
CUBESAT XI-V 02 Oct 07:02:32 07:05:37 17° 265° (W) 07:08:43 437.345
CUSAT 1 02 Oct 07:15:37 07:22:07 44° 271° (W) 07:27:18 437.405
RS-15 02 Oct 07:16:27 07:27:04 36° 255° (WSW) 07:37:24 29.354- 29.394
AO-85 02 Oct 07:19:18 07:21:35 15° 251° (WSW) 07:23:49 145.980
NOAA 15 02 Oct 07:32:32 07:37:50 76° 103° (ESE) 07:43:05 137.62
NOAA 18 02 Oct 07:46:10 07:51:35 62° 102° (ESE) 07:57:01 137.9125
DANDE 02 Oct 07:48:37 07:56:44 65° 267° (W) 08:03:34 436.750
DOVE 4 02 Oct 07:59:14 08:03:19 60° 101° (E) 08:07:27 437.250
GOMX 1 02 Oct 08:02:38 08:06:36 41° 286° (WNW) 08:10:29 467.674
CUTE-I 02 Oct 08:04:39 08:09:57 63° 285° (WNW) 08:15:14 437.470
Cubesat XI-IV 02 Oct 08:06:04 08:11:22 62° 286° (WNW) 08:16:39 437.490
LilacSat-2 02 Oct 08:07:13 08:10:46 35° 285° (WNW) 08:14:18 437.200
GONETS M04 02 Oct 08:18:50 08:26:55 42° 88° (E) 08:35:01
STRAND 1 02 Oct 08:21:41 08:26:43 66° 258° (WSW) 08:31:49 437.568
PHONESAT 2.4 02 Oct 08:33:29 08:36:23 85° 144° (SE) 08:39:17 2401.200-2431.200
CINEMA 3 02 Oct 08:35:55 08:39:51 35° 99° (E) 08:43:55 145.822/145.860
Cosmos 2499 02 Oct 08:39:03 08:45:46 45° 90° (E) 08:52:23 435.465 / 435.565
SEEDS 02 Oct 08:58:30 09:02:16 30° 98° (E) 09:05:59 437.485
CUTE 1.7 + AOD 2 02 Oct 09:05:45 09:10:00 59° 100° (E) 09:14:12 437.475
AAUSAT CUBESAT 2 02 Oct 09:07:30 09:10:29 19° 96° (E) 09:13:27 437.432
CANX-2 02 Oct 09:07:58 09:12:16 76° 101° (ESE) 09:16:33 2200.000
CUBEBUG 2 02 Oct 09:11:09 09:14:38 23° 97° (E) 09:18:11 437.445
NOAA 15 02 Oct 09:16:34 09:16:53 10° 296° (WNW) 09:17:12 137.62
UWE-3 02 Oct 09:19:20 09:22:22 18° 96° (E) 09:25:25 435.000/436.395/437.385
HO-68 02 Oct 09:21:45 09:28:55 79° 104° (ESE) 09:36:04 435.675
PRISM 02 Oct 09:27:12 09:31:14 51° 75° (ENE) 09:35:18 437.425
Oscar 11 02 Oct 09:27:41 09:29:11 12° 94° (E) 09:30:42 145.826/435.025
NOAA 18 02 Oct 09:29:07 09:31:39 13° 295° (WNW) 09:34:11 137.9125
BEESAT 2 02 Oct 09:31:00 09:33:30 16° 54° (NE) 09:36:00 435.950
ZACube-1 02 Oct 09:37:37 09:40:37 18° 96° (E) 09:43:39 437.345
COMPASS 1 02 Oct 09:55:43 09:59:55 73° 283° (WNW) 10:04:05 437.405
BEESAT 3 02 Oct 10:01:33 10:05:33 84° 66° (ENE) 10:09:29 437.485
PHONESAT 2.4 02 Oct 10:10:41 10:12:42 17° 344° (NNW) 10:14:43 2401.200-2431.200
CINEMA 3 02 Oct 10:14:28 10:16:41 14° 290° (WNW) 10:18:56 145.822/145.860
GONETS M04 02 Oct 10:15:55 10:23:39 34° 283° (WNW) 10:31:29
ANTELSAT 02 Oct 10:22:52 10:26:17 24° 72° (ENE) 10:29:42 437.575/2403.000
FUNcube-1 02 Oct 10:27:36 10:32:00 70° 100° (E) 10:36:29 145.935
Cosmos 2499 02 Oct 10:33:35 10:38:58 23° 285° (WNW) 10:44:21 435.465 / 435.565
SEEDS 02 Oct 10:35:02 10:37:39 16° 290° (WNW) 10:40:15 437.485
TIGRISAT 02 Oct 10:41:24 10:45:20 38° 74° (ENE) 10:49:16 435.000
AAUSAT CUBESAT 2 02 Oct 10:42:28 10:45:51 24° 288° (WNW) 10:49:12 437.432
CUBEBUG 2 02 Oct 10:47:36 10:51:06 24° 288° (WNW) 10:54:41 437.445
HUMSAT D 02 Oct 10:50:10 10:53:27 21° 96° (E) 10:56:44 437.325/437.525
